Location: Sevilla
(37.3933°N, 5.9839°W)
Time: 05:55:00
(UTC+02:00)

Transit 2A Rocket - Pass Details

Date: 27 June 2024
Orbit: 582 x 910 km, 66.7° (Epoch: 15 July)

Event Time Altitude Azimuth Distance (km) Brightness Sun altitude
Rises 04:47:53 0° 345° (NNW) 3,514 9.0 -20.9°
Reaches altitude 10° 04:51:29 10° 7° (N) 2,594 8.6 -20.4°
Maximum altitude 04:55:07 16° 44° (NE) 2,190 8.4 -20.0°
Drops below altitude 10° 04:58:44 10° 81° (E) 2,588 8.4 -19.6°
Sets 05:02:18 0° 102° (ESE) 3,502 8.8 -19.2°
